IGO526 VOMM-VOPB

Flight info

Callsign IGO526
Flight time N/A
Altitude 35000
Route IDASO2B IDASO P761 PPB
Aircraft A320/M-SDE3FGHIRWY/LB1

Departure

Time 2026-04-29 10:01
Airport Chennai International Airport (VOMM)

Arrival

Time N/A
Airport Veer Savarkar International Airport / INS Utkrosh (VOPB)
Time Latitude Longitude Altitude Speed Heading
2026-04-29 09:11 12.98226 80.15988 53 ft 0 kts 160°
2026-04-29 09:44 12.98242 80.15982 51 ft 4 kts 160°
2026-04-29 09:44 12.98264 80.15974 50 ft 2 kts 160°
2026-04-29 09:44 12.98284 80.15962 50 ft 4 kts 110°
2026-04-29 09:44 12.98285 80.15935 49 ft 4 kts 78°
2026-04-29 09:45 12.98284 80.15929 50 ft 0 kts 79°
2026-04-29 09:52 12.98284 80.15930 55 ft 1 kts 79°
2026-04-29 09:53 12.98287 80.15941 52 ft 3 kts 73°
2026-04-29 09:53 12.98295 80.15964 54 ft 4 kts 68°
2026-04-29 09:53 12.98308 80.15995 53 ft 6 kts 67°
2026-04-29 09:53 12.98324 80.16037 54 ft 7 kts 68°
2026-04-29 09:54 12.98344 80.16087 55 ft 8 kts 68°
2026-04-29 09:54 12.98367 80.16146 53 ft 10 kts 61°
2026-04-29 09:54 12.98425 80.16160 52 ft 10 kts 340°
2026-04-29 09:54 12.98496 80.16135 55 ft 12 kts 349°
2026-04-29 09:55 12.98557 80.16202 55 ft 17 kts 70°
2026-04-29 09:55 12.98602 80.16328 55 ft 20 kts 69°
2026-04-29 09:55 12.98653 80.16460 51 ft 20 kts 69°
2026-04-29 09:55 12.98703 80.16593 55 ft 20 kts 69°
2026-04-29 09:56 12.98753 80.16727 51 ft 21 kts 68°
2026-04-29 09:56 12.98804 80.16862 55 ft 19 kts 69°
2026-04-29 09:56 12.98853 80.16993 55 ft 20 kts 70°
2026-04-29 09:56 12.98904 80.17130 55 ft 20 kts 68°
2026-04-29 09:57 12.98966 80.17266 55 ft 22 kts 61°
2026-04-29 09:57 12.99026 80.17414 50 ft 23 kts 69°
2026-04-29 09:57 12.99085 80.17571 51 ft 24 kts 69°
2026-04-29 09:57 12.99150 80.17736 52 ft 26 kts 66°
2026-04-29 09:58 12.99235 80.17853 55 ft 15 kts 350°
2026-04-29 09:58 12.99283 80.17838 57 ft 3 kts 340°
2026-04-29 09:58 12.99284 80.17838 57 ft 0 kts 339°
2026-04-29 09:59 12.99285 80.17837 57 ft 2 kts 339°
2026-04-29 09:59 12.99316 80.17825 58 ft 8 kts 339°
2026-04-29 10:00 12.99341 80.17764 56 ft 15 kts 251°
2026-04-29 10:00 12.99266 80.17567 56 ft 55 kts 251°
2026-04-29 10:00 12.99043 80.16974 52 ft 119 kts 249°
2026-04-29 10:00 12.98676 80.16024 96 ft 163 kts 241°
2026-04-29 10:01 12.98306 80.14876 559 ft 175 kts 251°
2026-04-29 10:01 12.98056 80.13632 946 ft 182 kts 254°
2026-04-29 10:01 12.97863 80.12301 1073 ft 206 kts 272°
2026-04-29 10:01 12.98552 80.10922 1256 ft 238 kts 316°
2026-04-29 10:02 13.00129 80.10205 1464 ft 266 kts 355°
2026-04-29 10:02 13.01998 80.10523 1920 ft 280 kts 21°
2026-04-29 10:02 13.03793 80.11334 2676 ft 283 kts 26°
2026-04-29 10:02 13.05570 80.12227 3429 ft 285 kts 25°
2026-04-29 10:03 13.07399 80.13006 4194 ft 285 kts 21°
2026-04-29 10:03 13.09298 80.13610 4963 ft 285 kts 12°
2026-04-29 10:03 13.11246 80.13964 5741 ft 285 kts
2026-04-29 10:03 13.13217 80.14214 6509 ft 284 kts
2026-04-29 10:04 13.15180 80.14435 7209 ft 284 kts
2026-04-29 10:04 13.17152 80.14665 7884 ft 287 kts
2026-04-29 10:04 13.19095 80.15105 8552 ft 286 kts 26°
2026-04-29 10:04 13.20731 80.16238 9198 ft 285 kts 48°
2026-04-29 10:05 13.21814 80.17930 9821 ft 285 kts 69°
2026-04-29 10:05 13.22515 80.19897 10035 ft 304 kts 71°
2026-04-29 10:05 13.23244 80.22016 10178 ft 323 kts 71°
2026-04-29 10:05 13.23998 80.24222 10574 ft 331 kts 71°
2026-04-29 10:06 13.24766 80.26466 11086 ft 335 kts 71°
2026-04-29 10:06 13.25543 80.28726 11652 ft 337 kts 70°
2026-04-29 10:06 13.26331 80.31002 12214 ft 340 kts 70°
2026-04-29 10:06 13.27129 80.33299 12764 ft 343 kts 70°
2026-04-29 10:07 13.27931 80.35609 13345 ft 345 kts 70°
2026-04-29 10:07 13.28741 80.37941 13847 ft 348 kts 70°
2026-04-29 10:07 13.29496 80.40311 14279 ft 353 kts 76°
2026-04-29 10:07 13.29782 80.42826 14694 ft 359 kts 89°
2026-04-29 10:08 13.29485 80.45385 15094 ft 365 kts 103°
2026-04-29 10:08 13.28609 80.47854 15493 ft 372 kts 113°
2026-04-29 10:08 13.27550 80.50256 15896 ft 376 kts 113°
2026-04-29 10:08 13.26453 80.52752 16304 ft 381 kts 113°
2026-04-29 10:09 13.25360 80.55250 16694 ft 386 kts 113°
2026-04-29 10:09 13.24274 80.57744 17098 ft 390 kts 114°
2026-04-29 10:09 13.23159 80.60302 17487 ft 395 kts 114°
2026-04-29 10:09 13.22028 80.62889 17893 ft 399 kts 114°
2026-04-29 10:10 13.20887 80.65497 18264 ft 403 kts 114°
2026-04-29 10:10 13.19733 80.68139 18634 ft 407 kts 114°
2026-04-29 10:10 13.18573 80.70792 19036 ft 409 kts 114°
2026-04-29 10:10 13.17405 80.73459 19444 ft 411 kts 114°
2026-04-29 10:11 13.16230 80.76144 19852 ft 414 kts 115°
2026-04-29 10:11 13.15045 80.78844 20264 ft 416 kts 115°
2026-04-29 10:11 13.13864 80.81564 20677 ft 419 kts 112°
2026-04-29 10:11 13.12999 80.84431 21093 ft 421 kts 102°
2026-04-29 10:12 13.12623 80.87416 21504 ft 424 kts 95°
2026-04-29 10:12 13.12384 80.90437 21909 ft 426 kts 95°
2026-04-29 10:12 13.12133 80.93476 22296 ft 429 kts 95°
2026-04-29 10:12 13.11875 80.96537 22674 ft 431 kts 95°
2026-04-29 10:13 13.11612 80.99610 23055 ft 434 kts 95°
2026-04-29 10:13 13.11348 81.02702 23406 ft 436 kts 95°
2026-04-29 10:13 13.11086 81.05807 23705 ft 439 kts 95°
2026-04-29 10:13 13.10824 81.08931 24011 ft 440 kts 95°
2026-04-29 10:14 13.10561 81.12067 24307 ft 442 kts 95°
2026-04-29 10:14 13.10295 81.15225 24603 ft 444 kts 95°
2026-04-29 10:14 13.10027 81.18391 24887 ft 447 kts 95°
2026-04-29 10:14 13.09758 81.21569 25171 ft 448 kts 95°
2026-04-29 10:15 13.09488 81.24757 25456 ft 450 kts 95°
2026-04-29 10:15 13.09215 81.27969 25733 ft 453 kts 95°
2026-04-29 10:15 13.08942 81.31190 26006 ft 455 kts 95°
2026-04-29 10:15 13.08667 81.34428 26270 ft 457 kts 95°
2026-04-29 10:16 13.08387 81.37681 26531 ft 459 kts 95°
2026-04-29 10:16 13.08201 81.39839 26698 ft 460 kts 95°
2026-04-29 10:16 13.07824 81.44228 27038 ft 463 kts 95°
2026-04-29 10:16 13.07542 81.47520 27292 ft 464 kts 95°
2026-04-29 10:17 13.07259 81.50826 27537 ft 466 kts 95°
2026-04-29 10:17 13.06980 81.54111 27780 ft 468 kts 95°
2026-04-29 10:17 13.06704 81.57443 28029 ft 470 kts 95°
2026-04-29 10:17 13.06424 81.60837 28282 ft 472 kts 95°
2026-04-29 10:18 13.06149 81.64158 28533 ft 474 kts 95°
2026-04-29 10:18 13.05863 81.67531 28783 ft 477 kts 95°
2026-04-29 10:18 13.05574 81.70930 29032 ft 479 kts 95°
2026-04-29 10:18 13.05279 81.74328 29384 ft 478 kts 95°
2026-04-29 10:19 13.04984 81.77722 29757 ft 478 kts 95°
2026-04-29 10:19 13.04688 81.81113 30077 ft 477 kts 95°
2026-04-29 10:19 13.04389 81.84505 30381 ft 477 kts 95°
2026-04-29 10:19 13.04091 81.87890 30678 ft 477 kts 95°
2026-04-29 10:20 13.03794 81.91282 30980 ft 477 kts 95°
2026-04-29 10:20 13.03498 81.94670 31284 ft 477 kts 95°
2026-04-29 10:20 13.03202 81.98059 31593 ft 477 kts 95°
2026-04-29 10:20 13.02909 82.01441 31903 ft 477 kts 95°
2026-04-29 10:21 13.02616 82.04828 32221 ft 477 kts 95°
2026-04-29 10:21 13.02320 82.08209 32542 ft 476 kts 95°
2026-04-29 10:21 13.02021 82.11595 32854 ft 476 kts 95°
2026-04-29 10:21 13.01723 82.14973 33161 ft 476 kts 95°
2026-04-29 10:22 13.01423 82.18350 33475 ft 476 kts 96°
2026-04-29 10:22 13.01220 82.20631 33669 ft 475 kts 96°
2026-04-29 10:22 13.00919 82.24003 33929 ft 475 kts 96°
2026-04-29 10:22 13.00620 82.27374 34187 ft 475 kts 96°
2026-04-29 10:23 13.00324 82.30747 34452 ft 474 kts 96°
2026-04-29 10:23 13.00028 82.34111 34703 ft 474 kts 96°
2026-04-29 10:23 12.99159 82.40783 34805 ft 471 kts 107°
2026-04-29 10:24 12.97315 82.47215 34804 ft 470 kts 108°
2026-04-29 10:24 12.95469 82.53598 34809 ft 470 kts 108°
2026-04-29 10:25 12.93625 82.60029 34808 ft 470 kts 108°
2026-04-29 10:25 12.91788 82.66452 34803 ft 470 kts 108°
2026-04-29 10:26 12.89932 82.72923 34804 ft 469 kts 108°
2026-04-29 10:26 12.88088 82.79329 34805 ft 469 kts 108°
2026-04-29 10:27 12.85327 82.88912 34808 ft 469 kts 108°
2026-04-29 10:28 12.83481 82.95317 34807 ft 469 kts 108°
2026-04-29 10:28 12.81637 83.01725 34807 ft 469 kts 108°
2026-04-29 10:29 12.79791 83.08125 34811 ft 469 kts 108°
2026-04-29 10:29 12.77934 83.14523 34812 ft 468 kts 108°
2026-04-29 10:30 12.76073 83.20923 34814 ft 468 kts 108°
2026-04-29 10:30 12.74219 83.27307 34814 ft 468 kts 108°
2026-04-29 10:31 12.72372 83.33696 34814 ft 468 kts 108°
2026-04-29 10:31 12.70523 83.40090 34812 ft 468 kts 108°
2026-04-29 10:32 12.68662 83.46480 34813 ft 468 kts 108°
2026-04-29 10:32 12.66809 83.52859 34812 ft 467 kts 108°
2026-04-29 10:33 12.65617 83.59396 34813 ft 469 kts 97°
2026-04-29 10:33 12.64956 83.66036 34816 ft 469 kts 97°
2026-04-29 10:34 12.64292 83.72682 34812 ft 469 kts 97°
2026-04-29 10:34 12.63641 83.79326 34818 ft 469 kts 97°
2026-04-29 10:35 12.62984 83.85963 34816 ft 469 kts 97°
2026-04-29 10:35 12.62309 83.92595 34818 ft 468 kts 97°
2026-04-29 10:36 12.61637 83.99229 34818 ft 468 kts 97°
2026-04-29 10:36 12.60975 84.05863 34818 ft 468 kts 97°
2026-04-29 10:37 12.60303 84.12491 34818 ft 468 kts 97°
2026-04-29 10:37 12.59632 84.19118 34819 ft 468 kts 97°
2026-04-29 10:38 12.58965 84.25741 34821 ft 468 kts 97°
2026-04-29 10:38 12.58289 84.32369 34821 ft 468 kts 97°
2026-04-29 10:39 12.57613 84.38942 34822 ft 468 kts 97°
2026-04-29 10:39 12.56937 84.45562 34821 ft 468 kts 97°
2026-04-29 10:40 12.56263 84.52184 34824 ft 467 kts 97°
2026-04-29 10:40 12.55585 84.58799 34825 ft 467 kts 97°
2026-04-29 10:41 12.54901 84.65412 34824 ft 467 kts 97°
2026-04-29 10:41 12.54207 84.72019 34827 ft 467 kts 97°
2026-04-29 10:42 12.53521 84.78623 34828 ft 467 kts 97°
2026-04-29 10:42 12.52841 84.85229 34828 ft 466 kts 97°
2026-04-29 10:43 12.52161 84.91826 34829 ft 466 kts 97°
2026-04-29 10:43 12.51469 84.98418 34830 ft 466 kts 97°
2026-04-29 10:44 12.50774 85.05015 34827 ft 466 kts 97°
2026-04-29 10:44 12.50081 85.11614 34831 ft 466 kts 97°
2026-04-29 10:45 12.49399 85.18206 34834 ft 466 kts 97°
2026-04-29 10:45 12.48713 85.24752 34831 ft 466 kts 97°
2026-04-29 10:46 12.48006 85.31381 34833 ft 466 kts 97°
2026-04-29 10:46 12.47309 85.37933 34833 ft 466 kts 97°
2026-04-29 10:47 12.46612 85.44517 34831 ft 466 kts 97°
2026-04-29 10:47 12.45914 85.51110 34829 ft 466 kts 97°
2026-04-29 10:48 12.45211 85.57698 34837 ft 466 kts 97°
2026-04-29 10:48 12.44505 85.64288 34835 ft 466 kts 97°
2026-04-29 10:49 12.43798 85.70874 34837 ft 466 kts 97°
2026-04-29 10:49 12.43096 85.77461 34834 ft 466 kts 97°
2026-04-29 10:50 12.42392 85.84057 34835 ft 466 kts 97°
2026-04-29 10:50 12.41681 85.90642 34831 ft 466 kts 97°
2026-04-29 10:51 12.40965 85.97227 34833 ft 466 kts 97°
2026-04-29 10:51 12.40251 86.03809 34832 ft 465 kts 97°
2026-04-29 10:52 12.39533 86.10382 34833 ft 465 kts 97°
2026-04-29 10:52 12.38812 86.16966 34833 ft 465 kts 97°
2026-04-29 10:53 12.38103 86.23510 34833 ft 468 kts 97°
2026-04-29 10:53 12.37380 86.30131 34837 ft 469 kts 97°
2026-04-29 10:54 12.37316 86.36801 34837 ft 468 kts 75°
2026-04-29 10:54 12.39417 86.43098 34832 ft 469 kts 69°
2026-04-29 10:55 12.41661 86.49316 34832 ft 469 kts 69°
2026-04-29 10:55 12.43920 86.55582 34832 ft 469 kts 69°
2026-04-29 10:56 12.46188 86.61891 34831 ft 470 kts 69°
2026-04-29 10:56 12.48438 86.68165 34831 ft 470 kts 69°
2026-04-29 10:57 12.50667 86.74402 34831 ft 470 kts 69°
2026-04-29 10:57 12.52906 86.80685 34830 ft 470 kts 69°
2026-04-29 10:58 12.55143 86.86977 34830 ft 470 kts 69°
2026-04-29 10:58 12.57377 86.93267 34827 ft 470 kts 69°
2026-04-29 10:59 12.59608 86.99559 34826 ft 470 kts 69°
2026-04-29 10:59 12.61838 87.05857 34832 ft 471 kts 69°
2026-04-29 11:00 12.64074 87.12160 34830 ft 471 kts 69°
2026-04-29 11:00 12.66314 87.18460 34829 ft 471 kts 69°
2026-04-29 11:01 12.68562 87.24762 34827 ft 471 kts 69°
2026-04-29 11:01 12.70815 87.31070 34826 ft 472 kts 69°
2026-04-29 11:02 12.73071 87.37374 34828 ft 472 kts 69°
2026-04-29 11:02 12.75332 87.43686 34824 ft 472 kts 69°
2026-04-29 11:03 12.77595 87.49999 34827 ft 472 kts 69°
2026-04-29 11:03 12.79859 87.56319 34821 ft 473 kts 69°
2026-04-29 11:04 12.82126 87.62653 34827 ft 473 kts 69°
2026-04-29 11:04 12.84390 87.68986 34829 ft 474 kts 69°
2026-04-29 11:05 12.86556 87.75363 34819 ft 474 kts 77°
2026-04-29 11:05 12.86893 87.78716 34825 ft 474 kts 93°
2026-04-29 11:05 12.86389 87.82036 34824 ft 473 kts 107°
2026-04-29 11:06 12.84564 87.88523 34822 ft 474 kts 107°
2026-04-29 11:06 12.82725 87.95006 34826 ft 474 kts 107°
2026-04-29 11:07 12.81201 88.00410 34826 ft 474 kts 107°
2026-04-29 11:07 12.79371 88.06900 34828 ft 474 kts 107°
2026-04-29 11:08 12.77537 88.13394 34829 ft 475 kts 107°
2026-04-29 11:08 12.75698 88.19888 34827 ft 475 kts 107°
2026-04-29 11:09 12.73858 88.26391 34832 ft 475 kts 107°
2026-04-29 11:09 12.72014 88.32894 34832 ft 476 kts 107°
2026-04-29 11:10 12.70179 88.39398 34832 ft 476 kts 107°
2026-04-29 11:10 12.68333 88.45906 34832 ft 476 kts 107°
2026-04-29 11:11 12.66480 88.52408 34835 ft 475 kts 107°
2026-04-29 11:11 12.64626 88.58906 34835 ft 475 kts 107°
2026-04-29 11:12 12.62772 88.65409 34835 ft 475 kts 107°
2026-04-29 11:12 12.60853 88.71876 34832 ft 474 kts 114°
2026-04-29 11:13 12.58006 88.77942 34835 ft 473 kts 118°
2026-04-29 11:13 12.55386 88.84129 34838 ft 475 kts 110°
2026-04-29 11:14 12.53572 88.90634 34837 ft 476 kts 105°